Satellite: AO-27
Catalog number: 22825
Epoch time:      06053.48895835
Element set:    0339
Inclination:      098.2741 deg
RA of node:       041.0069 deg
Eccentricity:    0.0007656
Arg of perigee:   239.0659 deg
Mean anomaly:     120.9768 deg
Mean motion:   14.29163036 rev/day
Decay rate:        6.9e-07 rev/day^2
Epoch rev:           64697
Checksum:              342

Satellite: IO-26
Catalog number: 22826
Epoch time:      06054.52826516
Element set:      26
Inclination:      098.2678 deg
RA of node:       043.2321 deg
Eccentricity:    0.0007988
Arg of perigee:   236.0764 deg
Mean anomaly:     123.9660 deg
Mean motion:   14.29405883 rev/day
Decay rate:        1.1e-07 rev/day^2
Epoch rev:           64719
Checksum:              312

Satellite: PO-28
Catalog number: 22829
Epoch time:      06053.87733675
Element set:    0311
Inclination:      098.2589 deg
RA of node:       043.8180 deg
Eccentricity:    0.0009103
Arg of perigee:   209.8428 deg
Mean anomaly:     150.2239 deg
Mean motion:   14.30094719 rev/day
Decay rate:        5.2e-07 rev/day^2
Epoch rev:           64730
Checksum:              307

Satellite: TO-31
Catalog number: 25396
Epoch time:      06054.80231905
Element set:     464
Inclination:      098.4942 deg
RA of node:       119.0755 deg
Eccentricity:    0.0002928
Arg of perigee:   149.9964 deg
Mean anomaly:     210.1381 deg
Mean motion:   14.23696654 rev/day
Decay rate:       -7.3e-07 rev/day^2
Epoch rev:           39621
Checksum:              318

Satellite: GO-32
Catalog number: 25397
Epoch time:      06054.21856635
Element set:     953
Inclination:      098.4847 deg
RA of node:       115.5105 deg
Eccentricity:    0.0001558
Arg of perigee:   149.1631 deg
Mean anomaly:     210.9666 deg
Mean motion:   14.23098738 rev/day
Decay rate:       -2.4e-07 rev/day^2
Epoch rev:           39603
Checksum:              315

Satellite: UO-36
Catalog number: 25693
Epoch time:      06054.07125366
Element set:     974
Inclination:      064.5565 deg
RA of node:       233.2035 deg
Eccentricity:    0.0005353
Arg of perigee:   331.4024 deg
Mean anomaly:     028.6786 deg
Mean motion:   14.78577277 rev/day
Decay rate:       -4.5e-07 rev/day^2
Epoch rev:           36891
Checksum:              321

Satellite: MO-46
Catalog number: 26548
Epoch time:      06054.68115594
Element set:     421
Inclination:      064.5563 deg
RA of node:       222.7982 deg
Eccentricity:    0.0052025
Arg of perigee:   263.2752 deg
Mean anomaly:     096.2416 deg
Mean motion:   14.82916434 rev/day
Decay rate:       1.56e-06 rev/day^2
Epoch rev:           29257
Checksum:              315

Satellite: NO-44
Catalog number: 26931
Epoch time:      06054.16106287
Element set:     239
Inclination:      067.0534 deg
RA of node:       301.3839 deg
Eccentricity:    0.0006942
Arg of perigee:   270.2093 deg
Mean anomaly:     089.8211 deg
Mean motion:   14.29426109 rev/day
Decay rate:      -1.24e-06 rev/day^2
Epoch rev:           22963
Checksum:              292

Satellite: SO-50
Catalog number: 27607
Epoch time:      06053.62090355
Element set:     950
Inclination:      064.5572 deg
RA of node:       100.8446 deg
Eccentricity:    0.0056863
Arg of perigee:   182.9211 deg
Mean anomaly:     177.1568 deg
Mean motion:   14.71100766 rev/day
Decay rate:       1.25e-06 rev/day^2
Epoch rev:           17057
Checksum:              295

Satellite: AO-51
Catalog number: 28375
Epoch time:      06053.74530558
Element set:     467
Inclination:      098.1825 deg
RA of node:       110.9151 deg
Eccentricity:    0.0083339
Arg of perigee:   193.4425 deg
Mean anomaly:     166.4545 deg
Mean motion:   14.40505224 rev/day
Decay rate:        1.7e-07 rev/day^2
Epoch rev:            8668
Checksum:              309

Satellite: XO-53
Catalog number: 28894
Epoch time:      06054.84679022
Element set:     376
Inclination:      098.1772 deg
RA of node:       314.8854 deg
Eccentricity:    0.0017619
Arg of perigee:   163.3842 deg
Mean anomaly:     196.7937 deg
Mean motion:   14.59438446 rev/day
Decay rate:        7.1e-07 rev/day^2
Epoch rev:            1744
Checksum:              351

/EX
SB KEPS @ AMSAT  $ORB06054.W
Orbital Elements  06054.WEATHER

HR AMSAT ORBITAL ELEMENTS FOR WEATHER SATELLITES
FROM WA5QGD FORT WORTH,TX February 23, 2006
Send SUBSCRIBE KEPS/UNSUBSCRIBE KEPS to majordomo@amsat.org only
BID: ORB06054.W
TO ALL RADIO AMATEURS BT

Satellite: NOAA-10
Catalog number: 16969
Epoch time:      06054.29804294
Element set:     106
Inclination:      098.7656 deg
RA of node:       065.6663 deg
Eccentricity:    0.0013077
Arg of perigee:   120.1335 deg
Mean anomaly:     240.1147 deg
Mean motion:   14.27285535 rev/day
Decay rate:       -6.4e-07 rev/day^2
Epoch rev:            1091
Checksum:              292

Satellite: NOAA-11
Catalog number: 19531
Epoch time:      06054.28741420
Element set:       9
Inclination:      098.8302 deg
RA of node:       143.9371 deg
Eccentricity:    0.0010860
Arg of perigee:   316.1907 deg
Mean anomaly:     043.8403 deg
Mean motion:   14.14792377 rev/day
Decay rate:       2.54e-06 rev/day^2
Epoch rev:           89843
Checksum:              293

Satellite: NOAA-12
Catalog number: 21263
Epoch time:      06054.25538672
Element set:     500
Inclination:      098.7242 deg
RA of node:       048.0547 deg
Eccentricity:    0.0013570
Arg of perigee:   060.6707 deg
Mean anomaly:     299.5837 deg
Mean motion:   14.25482905 rev/day
Decay rate:       -4.5e-07 rev/day^2
Epoch rev:           76801
Checksum:              303

